User: anonymous   Login
Location: Fort Wayne
(41.1310°N, 85.1290°W)
Time: 06:17:28
(UTC-04:00)
Language:

Tiros 1 despin weight - Orbit

View from above orbital plane
View from above orbital plane
View from above satellite
View from above satellite

Ground track
Ground track

The orbit data is extracted from the following two-line orbital elements,

1   115U 60002D   17174.93042069 -.00000058 +00000-0 +20328-4 0  9991
2   115 048.1665 111.5241 0034221 128.9084 231.4888 14.83090824030060
Epoch (UTC): 23 June 2017 22:19:48
Eccentricity: 0.0034221
inclination: 48.1665°
perigee height: 595 km
apogee height: 643 km
right ascension of ascending node: 111.5241°
argument of perigee: 128.9084°
revolutions per day: 14.83090824
mean anomaly at epoch: 231.4888°
orbit number at epoch: 3006

The dashed part of the orbit path shows where the satellite is in the earth's shadow,  

DLR